Regional Weather Roundup
Issued by NWS

Home | Current Version | Previous Version | Graphics & Text | Print | Product List | Glossary On
Versions: 1 2 3 4 5 6 7 8 9 10 11 12 13 14 15 16 17 18 19 20 21 22 23 24 25 26 27 28 29 30 31 32 33 34 35 36 37 38 39 40 41 42 43 44
000
ASUS45 KPSR 291010
RWRAZ

ARIZONA REGIONAL HOURLY WEATHER ROUNDUP
NATIONAL WEATHER SERVICE TUCSON AZ
300 AM MST MON MAY 29 2017

NOTE: FAIR INDICATES FEW OR NO CLOUDS BELOW 12,000 FEET WITH NO
SIGNIFICANT WEATHER AND/OR OBSTRUCTIONS TO VISIBILITY.

AZZ001>003-036-291100-
NORTHWEST ARIZONA

CITY           SKY/WX    TMP DP  RH WIND       PRES   REMARKS
BULLHEAD CITY  CLEAR     75  19  12 CALM      29.78R
KINGMAN        CLEAR     63  19  18 MISG      29.96F
$$

AZZ004>008-015-016-018-291100-
NORTH CENTRAL ARIZONA

CITY           SKY/WX    TMP DP  RH WIND       PRES   REMARKS
GRAND CANYON   MOCLDY    57  21  24 E3        30.21F
WILLIAMS       SUNNY     52  19  28 S8        30.19F
PRESCOTT       CLEAR     54  28  36 S3        30.08R
FLAGSTAFF      CLEAR     40  21  46 CALM      30.22F
PAYSON         SUNNY     64  19  17 N6        30.09F
PAGE           CLEAR     65  22  19 S3        30.07F
$$

AZZ009>014-017-291100-
NORTHEAST ARIZONA

CITY           SKY/WX    TMP DP  RH WIND       PRES   REMARKS
WINSLOW        CLEAR     48  16  27 W3        30.11S
SAINT JOHNS    CLEAR     52  30  43 CALM      30.13S
WINDOW ROCK    PTCLDY    40  20  44 CALM      30.24S
SHOW LOW       CLEAR     41  14  33 SE5       30.17S
$$

AZZ023-291100-
GREATER PHOENIX AREA

CITY           SKY/WX    TMP DP  RH WIND       PRES   REMARKS
PHOENIX        CLEAR     79  30  16 CALM      29.78S
BUCKEYE        SUNNY     68  18  14 N6        29.79S
LUKE AFB       CLEAR     71  30  21 N8        29.78S
DEER VALLEY    CLEAR     73  24  16 CALM      29.81R
SCOTTSDALE     CLEAR     75  30  19 CALM      29.82S
MESA-GATEWAY   CLEAR     68  27  21 E7        29.82S
$$

AZZ027-028-291100-
SOUTHWEST MARICOPA COUNTY AND PINAL COUNTY

CITY           SKY/WX    TMP DP  RH WIND       PRES   REMARKS
CASA GRANDE    CLEAR     75  23  14 E5        29.83R
$$

AZZ503-504-507>509-291100-
SOUTHEAST ARIZONA

CITY           SKY/WX    TMP DP  RH WIND       PRES   REMARKS
TUCSON         CLEAR     70  21  15 SE5       29.92S
DAVIS-MONTHAN  CLEAR     66  19  16 SE7       29.90F
NOGALES        CLEAR     59  26  28 SE3       29.98F
SIERRA VISTA   CLEAR     65  13  13 SW7       30.03F
DOUGLAS        CLEAR     57  10  15 CALM      30.00S
SAFFORD        CLEAR     77  31  18 E14       29.94S
$$

AZZ020-021-025-026-031-291100-
SOUTHWEST ARIZONA

CITY           SKY/WX    TMP DP  RH WIND       PRES   REMARKS
YUMA           CLEAR     80  39  23 NW9       29.74F
$$

CAZ031-033-041-043-047-048-061-291100-
SOUTHERN CALIFORNIA

CITY           SKY/WX    TMP DP  RH WIND       PRES   REMARKS
DOWNTOWN L.A.  CLOUDY    60  57  89 CALM      29.93F
L.A. AIRPORT   CLOUDY    60  57  89 SW5       29.93F
SAN DIEGO      CLOUDY    62  57  83 NW6       29.94F
BURBANK        PTCLDY    59  53  80 SE6       29.92F
ONTARIO        PTCLDY    59  53  80 W5        29.93F
RIVERSIDE      CLEAR     60  54  80 W3        29.93F
PALM SPRINGS   CLEAR     76  49  38 CALM      29.79F
EL CENTRO NAS  PTCLDY    73  30  20 N7        29.75F
IMPERIAL       PTCLDY    73  38  27 W3        29.73F
BLYTHE         CLEAR     73  30  20 CALM      29.74F
NEEDLES        CLEAR     79  11   7 SW9       29.78F
$$

NVZ020-UTZ003-291100-
SOUTHERN NEVADA-UTAH

CITY           SKY/WX    TMP DP  RH WIND       PRES   REMARKS
LAS VEGAS      CLEAR     74  16  11 S6        29.88S
SALT LAKE CITY CLEAR     59  40  49 S3        30.13S
$$

NMZ009-TXZ055-291100-
NEW MEXICO-WEST TEXAS

CITY           SKY/WX    TMP DP  RH WIND       PRES   REMARKS
ALBUQUERQUE    PTCLDY    61  37  41 N9        30.18S
EL PASO        CLEAR     69  42  37 CALM      30.08R
$$


........................KEY........................
SKY/WX - SKY CONDITION/WEATHER
TMP    - TEMPERATURE IN FAHRENHEIT
DP     - DEWPOINT IN FAHRENHEIT
RH     - RELATIVE HUMIDITY IN PERCENT
WIND   - DIRECTION AND SPEED IN MILES PER HOUR (MPH)
VRB    - VARIABLE WIND DIRECTION
PRES   - MEAN SEA LEVEL PRESSURE IN INCHES OF MERCURY
         F - FALLING PRESSURE   R - RISING PRESSURE
         S - STEADY PRESSURE
VSB    - VISIBILITY IN MILES
HX     - HEAT INDEX IN FAHRENHEIT
WCI    - WIND CHILL INDEX IN FAHRENHEIT
TC     - TEMPERATURE IN CELSIUS WHICH IS ALSO KNOWN AS
         TEMPERATURE IN CENTIGRADE
AFB    - AIR FORCE BASE
         LUKE AFB IS LUKE AIR FORCE BASE
         DAVIS-MONTHAN IS DAVIS-MONTHAN AIR FORCE BASE
NAS    - NAVAL AIR STATION
         EL CENTRO NAS IS EL CENTRO NAVAL AIR STATION
N/A    - NOT AVAILABLE





USA.gov is the U.S. government's official web portal to all federal, state and local government web resources and services.